CW5988 Weather Reports


Display with metric or nautical units.
time (UTC)temp
F
wind
direction
speed
MPH
gust
MPH
rain 1hr
in
rain 24hr
in
rain mn
in
humidity
%
barometer
mb
20260502215930 58 275 4.0 11.0 0.00 0.00 0.00 75 1013.4
20260502215436 58 292 5.0 11.0 0.00 0.00 0.00 75 1013.4
20260502214922 58 284 4.0 8.0 0.00 0.00 0.00 75 1013.5
20260502214428 57 282 4.0 14.0 0.00 0.00 0.00 76 1013.5
20260502213936 57 287 5.0 13.0 0.00 0.00 0.00 75 1013.6
20260502213424 58 237 5.0 12.0 0.00 0.00 0.00 75 1013.5
20260502212930 58 273 6.0 12.0 0.00 0.00 0.00 74 1013.6
20260502212433 58 222 5.0 13.0 0.00 0.00 0.00 75 1013.5
20260502211921 58 301 7.0 15.0 0.00 0.00 0.00 75 1013.6
20260502211426 58 282 7.0 14.0 0.00 0.00 0.00 74 1013.6
20260502210934 58 261 7.0 14.0 0.00 0.00 0.00 74 1013.6
20260502210421 58 203 7.0 15.0 0.00 0.00 0.00 74 1013.7
20260502205924 58 268 7.0 16.0 0.00 0.00 0.00 74 1013.9
20260502205432 58 276 9.0 16.0 0.00 0.00 0.00 74 1013.9
20260502204932 58 262 6.0 15.0 0.00 0.00 0.00 74 1014.0
20260502204436 58 244 7.0 15.0 0.00 0.00 0.00 74 1014.1
20260502203952 58 306 5.0 20.0 0.00 0.00 0.00 74 1014.0
20260502203418 58 270 9.0 20.0 0.00 0.00 0.00 75 1014.0
20260502202923 58 208 7.0 20.0 0.00 0.00 0.00 74 1014.0
20260502202451 58 271 7.0 16.0 0.00 0.00 0.00 75 1014.1
20260502201938 58 324 8.0 16.0 0.00 0.00 0.00 75 1014.2
20260502201450 58 282 5.0 18.0 0.00 0.00 0.00 76 1014.2
20260502200935 58 271 6.0 17.0 0.00 0.00 0.00 76 1014.2
20260502200422 57 292 5.0 17.0 0.00 0.00 0.00 76 1014.3
20260502195928 57 282 11.0 18.0 0.00 0.00 0.00 75 1014.3
20260502195436 57 216 5.0 19.0 0.00 0.00 0.00 76 1014.3
20260502194922 57 292 7.0 19.0 0.00 0.00 0.00 76 1014.2
20260502194429 57 208 5.0 13.0 0.00 0.00 0.00 77 1014.2
20260502193931 57 205 6.0 14.0 0.00 0.00 0.00 77 1014.2
20260502193417 57 194 4.0 14.0 0.00 0.00 0.00 77 1014.3
20260502192923 58 307 8.0 14.0 0.00 0.00 0.00 76 1014.2
20260502192431 58 280 4.0 12.0 0.00 0.00 0.00 77 1014.2
20260502191918 57 263 6.0 11.0 0.00 0.00 0.00 77 1014.3
20260502191444 57 290 4.0 11.0 0.00 0.00 0.00 77 1014.4
20260502190929 57 268 5.0 12.0 0.00 0.00 0.00 78 1014.3
20260502190431 57 247 5.0 12.0 0.00 0.00 0.00 78 1014.2
20260502185925 57 172 3.0 12.0 0.00 0.00 0.00 79 1014.2
20260502185431 57 221 6.0 12.0 0.00 0.00 0.00 79 1014.2
20260502184918 57 295 4.0 8.0 0.00 0.00 0.00 79 1014.2
20260502184423 57 88 3.0 10.0 0.00 0.00 0.00 80 1014.3
20260502183929 57 284 5.0 12.0 0.00 0.00 0.00 80 1014.3
20260502183436 56 294 4.0 12.0 0.00 0.00 0.00 80 1014.3
20260502182923 56 256 5.0 9.0 0.00 0.00 0.00 80 1014.3
20260502182455 56 210 5.0 11.0 0.00 0.00 0.00 80 1014.3
20260502181941 56 207 6.0 11.0 0.00 0.00 0.00 80 1014.3
20260502181426 56 268 3.0 14.0 0.00 0.00 0.00 80 1014.3
20260502180933 56 238 5.0 14.0 0.00 0.00 0.00 80 1014.2
20260502180444 56 196 3.0 11.0 0.00 0.00 0.00 80 1014.2
20260502170450 55 280 7.0 14.0 0.00 0.00 0.00 81 1013.9
20260502163938 55 272 4.0 9.0 0.00 0.00 0.00 83 1013.9
20260502163453 55 227 3.0 11.0 0.00 0.00 0.00 83 1014.0
20260502162917 55 218 3.0 11.0 0.00 0.00 0.00 83 1013.9
20260502162418 55 222 3.0 9.0 0.00 0.00 0.00 84 1013.9
20260502161924 55 258 3.0 11.0 0.00 0.00 0.00 84 1014.0
20260502161433 55 268 6.0 11.0 0.00 0.00 0.00 84 1014.0
20260502160949 54 249 2.0 9.0 0.00 0.00 0.00 84 1013.9
20260502160435 54 199 4.0 9.0 0.00 0.00 0.00 85 1013.9
20260502151919 54 283 4.0 7.0 0.00 0.00 0.00 85 1013.7
20260502151424 54 228 2.0 9.0 0.00 0.00 0.00 85 1013.6
20260502150932 54 244 4.0 10.0 0.00 0.00 0.00 85 1013.6
20260502150420 54 239 3.0 13.0 0.00 0.00 0.00 85 1013.5
20260502130429 54 252 3.0 10.0 0.00 0.00 0.00 85 1012.6
20260502123445 54 268 3.0 9.0 0.00 0.00 0.00 85 1012.6
20260502122930 54 198 4.0 9.0 0.00 0.00 0.00 85 1012.7
20260502122416 54 256 2.0 8.0 0.00 0.00 0.00 85 1012.6
20260502121923 54 221 4.0 8.0 0.00 0.00 0.00 85 1012.6
20260502121427 54 258 3.0 8.0 0.00 0.00 0.00 85 1012.6
20260502120935 54 158 3.0 12.0 0.00 0.00 0.00 85 1012.6
20260502120420 54 209 6.0 12.0 0.00 0.00 0.00 85 1012.6
20260502115924 54 258 5.0 10.0 0.00 0.00 0.00 85 1012.5
20260502115433 54 219 4.0 16.0 0.00 0.00 0.00 85 1012.7
20260502114919 54 201 8.0 16.0 0.00 0.00 0.00 85 1012.5
20260502114427 54 262 6.0 14.0 0.00 0.00 0.00 85 1012.6
20260502113956 54 285 4.0 14.0 0.00 0.00 0.00 85 1012.7
20260502113422 54 249 4.0 13.0 0.00 0.00 0.00 85 1012.6
20260502112929 54 222 6.0 12.0 0.00 0.00 0.00 85 1012.6
20260502112436 54 205 5.0 9.0 0.00 0.00 0.00 85 1012.6
20260502111951 54 268 4.0 12.0 0.00 0.00 0.00 85 1012.6
20260502111436 54 222 4.0 12.0 0.00 0.00 0.00 85 1012.7
20260502110924 54 273 3.0 9.0 0.00 0.00 0.00 85 1012.7
20260502110428 54 268 3.0 9.0 0.00 0.00 0.00 85 1012.7
20260502105935 54 247 2.0 6.0 0.00 0.00 0.00 85 1012.6
20260502105422 54 177 3.0 7.0 0.00 0.00 0.00 85 1012.7
20260502104930 54 313 1.0 7.0 0.00 0.00 0.00 85 1012.7
20260502104436 54 203 2.0 6.0 0.00 0.00 0.00 85 1012.7
20260502103953 54 268 2.0 9.0 0.00 0.00 0.00 85 1012.8
20260502103418 54 210 6.0 9.0 0.00 0.00 0.00 85 1012.7
20260502102939 54 240 4.0 11.0 0.00 0.00 0.00 85 1012.7
20260502102427 54 212 3.0 11.0 0.00 0.00 0.00 85 1012.7
20260502101932 54 230 4.0 10.0 0.00 0.00 0.00 85 1012.8
20260502101418 54 233 2.0 7.0 0.00 0.00 0.00 85 1012.8
20260502100925 54 318 3.0 10.0 0.00 0.00 0.00 85 1012.9
20260502100430 54 301 3.0 13.0 0.00 0.00 0.00 85 1013.0
20260502091429 54 242 3.0 5.0 0.00 0.00 0.00 86 1013.5
20260502090935 54 243 2.0 4.0 0.00 0.00 0.00 86 1013.5
20260502090421 54 88 1.0 9.0 0.00 0.00 0.00 86 1013.5
20260502071426 54 289 4.0 9.0 0.00 0.00 0.00 86 1013.8
20260502070934 54 289 4.0 8.0 0.00 0.00 0.00 86 1013.8
20260502070438 54 277 3.0 11.0 0.00 0.00 0.00 86 1013.8
20260502065952 54 241 5.0 10.0 0.00 0.00 0.00 86 1013.9
20260502065438 54 196 5.0 11.0 0.00 0.00 0.00 86 1013.9
20260502064924 54 280 6.0 11.0 0.00 0.00 0.00 86 1013.9
20260502064429 54 256 6.0 10.0 0.00 0.00 0.00 86 1013.9
20260502063917 54 249 6.0 11.0 0.00 0.00 0.00 86 1013.9
20260502063419 54 242 6.0 11.0 0.00 0.00 0.00 86 1013.9
20260502062927 54 212 3.0 10.0 0.00 0.00 0.00 86 1013.9
20260502062434 54 236 5.0 13.0 0.00 0.00 0.00 86 1013.9
20260502061950 54 242 4.0 13.0 0.00 0.00 0.00 86 1013.8
20260502061417 54 308 5.0 13.0 0.00 0.00 0.00 86 1013.9
20260502060923 54 206 7.0 13.0 0.00 0.00 0.00 86 1014.0
20260502060430 54 259 7.0 13.0 0.00 0.00 0.00 86 1013.9
20260502055917 54 254 6.0 15.0 0.00 0.00 0.00 86 1013.9
20260502055420 54 219 9.0 15.0 0.00 0.00 0.00 85 1013.9
20260502054927 54 264 8.0 16.0 0.00 0.00 0.00 85 1013.9
20260502054434 54 268 8.0 16.0 0.00 0.00 0.00 85 1013.9
20260502053941 54 263 11.0 16.0 0.00 0.00 0.00 85 1013.9
20260502053427 54 249 10.0 19.0 0.00 0.00 0.00 85 1013.9
20260502052933 54 258 10.0 19.0 0.00 0.00 0.00 85 1013.9
20260502052426 54 249 9.0 17.0 0.00 0.00 0.00 85 1013.9
20260502051932 54 247 5.0 17.0 0.00 0.00 0.00 85 1014.0
20260502051419 54 314 8.0 15.0 0.00 0.00 0.00 85 1013.9
20260502050953 54 202 6.0 15.0 0.00 0.00 0.00 85 1013.9
20260502050418 54 270 8.0 16.0 0.00 0.00 0.00 85 1013.9
20260502045927 54 270 7.0 16.0 0.00 0.00 0.00 85 1013.9
20260502045435 54 268 5.0 16.0 0.00 0.00 0.00 85 1013.9
20260502044938 54 270 6.0 16.0 0.00 0.00 0.00 85 1013.9
20260502044453 54 276 8.0 13.0 0.00 0.00 0.00 85 1013.9
20260502043934 54 239 5.0 13.0 0.00 0.00 0.00 85 1013.9
20260502043450 54 275 5.0 16.0 0.00 0.00 0.00 85 1013.8
20260502042936 54 242 8.0 16.0 0.00 0.00 0.00 85 1013.7
20260502042423 54 270 9.0 16.0 0.00 0.00 0.00 85 1013.6
20260502041931 54 265 6.0 16.0 0.00 0.00 0.00 85 1013.5
20260502041417 54 276 9.0 15.0 0.00 0.00 0.00 85 1013.4
20260502040921 54 212 9.0 18.0 0.00 0.00 0.00 85 1013.3
20260502040429 54 248 8.0 18.0 0.00 0.00 0.00 85 1013.3
20260502035935 54 272 9.0 18.0 0.00 0.00 0.00 85 1013.3
20260502035423 54 264 10.0 17.0 0.00 0.00 0.00 85 1013.2
20260502034929 54 242 8.0 17.0 0.00 0.00 0.00 85 1013.2
20260502034438 54 282 8.0 14.0 0.00 0.00 0.00 85 1013.2
20260502033957 54 273 8.0 14.0 0.00 0.00 0.00 84 1013.1
20260502033437 54 215 8.0 15.0 0.00 0.00 0.00 84 1013.1
20260502032923 54 275 9.0 18.0 0.00 0.00 0.00 84 1013.0
20260502032432 54 303 10.0 18.0 0.00 0.00 0.00 84 1013.0
20260502031920 54 268 8.0 14.0 0.00 0.00 0.00 84 1013.0
20260502031450 54 242 7.0 13.0 0.00 0.00 0.00 84 1012.9
20260502030936 55 268 7.0 12.0 0.00 0.00 0.00 83 1013.0
20260502030450 55 213 6.0 13.0 0.00 0.00 0.00 83 1013.0
20260502025931 55 221 6.0 13.0 0.00 0.00 0.00 83 1012.9
20260502025437 55 222 2.0 9.0 0.00 0.00 0.00 83 1013.0
20260502024953 55 240 3.0 9.0 0.00 0.00 0.00 82 1012.9
20260502024449 55 247 4.0 7.0 0.00 0.00 0.00 82 1012.7
20260502023934 55 184 3.0 12.0 0.00 0.00 0.00 82 1012.8
20260502023423 55 128 5.0 12.0 0.00 0.00 0.00 82 1012.6
20260502022943 55 39 3.0 12.0 0.00 0.00 0.00 82 1012.5
20260502022428 55 66 3.0 12.0 0.00 0.00 0.00 82 1012.6
20260502021934 56 7 4.0 9.0 0.00 0.00 0.00 81 1012.6
20260502021451 56 134 5.0 9.0 0.00 0.00 0.00 81 1012.7
20260502020935 56 31 3.0 10.0 0.00 0.00 0.00 81 1012.7
20260502020421 56 130 4.0 16.0 0.00 0.00 0.00 82 1012.7
20260502015928 56 323 1.0 15.0 0.00 0.00 0.00 81 1012.8
20260502015430 56 116 7.0 15.0 0.00 0.00 0.00 81 1012.8
20260502014936 56 329 4.0 12.0 0.00 0.00 0.00 81 1012.7
20260502014424 56 268 4.0 12.0 0.00 0.00 0.00 80 1012.7
20260502013931 57 22 5.0 12.0 0.00 0.00 0.00 80 1012.8
20260502013417 57 75 3.0 12.0 0.00 0.00 0.00 80 1012.7
20260502012922 57 210 6.0 20.0 0.00 0.00 0.00 80 1012.6
20260502012429 57 285 8.0 19.0 0.00 0.00 0.00 80 1012.7
20260502011934 57 151 5.0 19.0 0.00 0.00 0.00 80 1012.6
20260502011435 58 282 7.0 16.0 0.00 0.00 0.00 79 1012.7
20260502010921 58 345 7.0 15.0 0.00 0.00 0.00 79 1012.7
20260502010427 58 62 6.0 17.0 0.00 0.00 0.00 79 1012.8
20260502005930 58 225 7.0 17.0 0.00 0.00 0.00 80 1012.7
20260502005434 58 301 7.0 17.0 0.00 0.00 0.00 79 1012.7
20260502004941 58 256 8.0 18.0 0.00 0.00 0.00 79 1012.7
20260502004457 58 256 8.0 18.0 0.00 0.00 0.00 79 1012.6
20260502003921 58 214 5.0 15.0 0.00 0.00 0.00 79 1012.8
20260502003426 58 313 7.0 15.0 0.00 0.00 0.00 78 1012.7
20260502002930 58 199 6.0 15.0 0.00 0.00 0.00 79 1012.7
20260502002435 58 15 7.0 12.0 0.00 0.00 0.00 79 1012.6
20260502001923 58 97 6.0 12.0 0.00 0.00 0.00 79 1012.7
20260502001430 58 32 6.0 15.0 0.00 0.00 0.00 78 1012.9
20260502000935 58 45 6.0 19.0 0.00 0.00 0.00 78 1012.9
20260502000421 58 323 7.0 19.0 0.00 0.00 0.00 78 1012.9
20260501235921 58 147 4.0 15.0 0.00 0.00 0.00 77 1013.1
20260501235446 58 319 4.0 15.0 0.00 0.00 0.00 77 1013.0
20260501234933 59 333 9.0 15.0 0.00 0.00 0.00 77 1013.0
20260501234437 59 217 5.0 10.0 0.00 0.00 0.00 77 1013.1
20260501233954 59 55 4.0 11.0 0.00 0.00 0.00 77 1013.1
20260501233442 59 337 4.0 17.0 0.00 0.00 0.00 77 1013.3
20260501232929 59 50 3.0 17.0 0.00 0.00 0.00 77 1013.3
20260501232436 59 111 4.0 16.0 0.00 0.00 0.00 77 1013.2
20260501231953 58 45 6.0 14.0 0.00 0.00 0.00 78 1013.3
20260501231447 58 302 7.0 16.0 0.00 0.00 0.00 77 1013.3
20260501231002 59 294 9.0 18.0 0.00 0.00 0.00 77 1013.3
20260501230456 59 297 10.0 18.0 0.00 0.00 0.00 77 1013.3
20260501225931 59 8 8.0 15.0 0.00 0.00 0.00 76 1013.3
20260501225419 59 294 7.0 15.0 0.00 0.00 0.00 77 1013.5
20260501224945 59 22 5.0 13.0 0.00 0.00 0.00 77 1013.5
20260501224430 59 330 7.0 13.0 0.00 0.00 0.00 77 1013.6
20260501223936 59 350 6.0 15.0 0.00 0.00 0.00 77 1013.5
20260501223423 59 341 7.0 15.0 0.00 0.00 0.00 77 1013.6
20260501222928 59 306 5.0 17.0 0.00 0.00 0.00 76 1013.7
20260501222431 59 320 6.0 17.0 0.00 0.00 0.00 76 1013.8
20260501221918 60 276 7.0 12.0 0.00 0.00 0.00 76 1014.0
20260501221423 59 7 6.0 17.0 0.00 0.00 0.00 76 1014.2
20260501220932 59 302 3.0 17.0 0.00 0.00 0.00 77 1014.4
20260501220436 59 240 8.0 15.0 0.00 0.00 0.00 77 1014.5